Location: *
(43.0833°N, 13.0500°E)
Time: 14:10:39
(UTC+00:00)

IRS-1A Rocket - Pass Details

Date: 15 November 2019
Orbit: 852 x 931 km, 99.2° (Epoch: 12 December)

Event Time Altitude Azimuth Distance (km) Brightness Sun altitude
Exits shadow 17:55:48 51° 53° (NE) 1,099 4.4 -24.0°
Drops below altitude 10° 18:00:55 10° 355° (N) 2,575 6.7 -24.9°
Sets 18:03:24 0° 351° (N) 3,532 7.5 -25.4°
